User: anonymous   Login
Location: Unspecified
(44.0704°N, 88.6889°W)
Time: 00:06:19
(UTC+02:00)
Language:

A-11 Canister half - Orbit

View from above orbital plane
View from above orbital plane
View from above satellite
View from above satellite

Ground track
Ground track

The orbit data is extracted from the following two-line orbital elements,

1    53U 60009E   19175.73845519 -.00000162 +00000-0 -75225-3 0  9993
2    53 047.2766 285.1874 0098877 102.2034 258.9849 12.17228630624872
Epoch (UTC): 24 June 2019 17:43:22
Eccentricity: 0.0098877
inclination: 47.2766°
perigee height: 1526 km
apogee height: 1683 km
right ascension of ascending node: 285.1874°
argument of perigee: 102.2034°
revolutions per day: 12.17228630
mean anomaly at epoch: 258.9849°
orbit number at epoch: 62487

The dashed part of the orbit path shows where the satellite is in the earth's shadow,  

DLR